星链-11275 (STARLINK-11275)

导读

STARLINK-11275是美国太空探索技术公司星链星座的一颗卫星,于2024年10月18日发射升空,归属美国航天项目。星链计划旨在构建全球卫星互联网星座,为全球提供低时延、广覆盖的宽带互联网服务,该卫星入轨后将承担星链网络中的通信转发任务,进一步扩充星链星座的服务容量与覆盖范围。

Basic Information
目录编号:
61579
目录名称:
STARLINK-11275
国际标识:
2024-187F
轨道中心:
EARTH
卫星名称:
星链-11275
卫星全名:
星链-11275 (STARLINK-11275)
卫星状态:
在轨 (已飞行693 天)
发射日期:
2024-10-18 UTC
国别 :
美国 (US)
星等 :
--
This satellite is enrolled in the Space Conjunction Data Service (SCDS) and the current flight risk assessment level is: No High Risk
Orbit Information
数据来源 国际轨道数据 AOE轨道数据
星历时间 2026-09-11T07:11:14+0800
14小时前
查看轨道信息
2026-09-06T22:00:00+0800
4天前
查看轨道信息
半长轴 6737.876km 6737.835km
偏心率 0.000101 0.0000968
轨道倾角 53.158° 53.161°
近地点辐角 100.172° 109.695°
升交点赤经 102.645° 124.254°
平近点角 259.941° 309.158°
近地点 359.058km 359.045km
远地点 360.42km 360.351km
周期 91.737分钟 91.736分钟
每日圈数 15.697058 15.697202
Detailed Information
固有亮度:
5
最大亮度:
2.5
卫星平台:
Starlink V1.0
覆盖范围:
全球
运营商:
太空探索技术公司
运营商所在国:
美国
制造商(研发单位):
太空探索技术公司
制造商所在国:
美国
使用方式:
暂无
Satellite Introduction
Starlink 计划是 SpaceX 推出的全球卫星互联网项目,通过发射低轨道卫星,为全球尤其是偏远地区提供高速、低延迟的互联网服务。自 2019 年起,Starlink 已部署数千颗卫星,旨在缩小全球数字鸿沟,推动互联网普及。该项目还为军事、航空等行业提供通信支持,带来广泛经济效益。
2D Orbit Map
3D Orbit Map
Orbit Altitude Analysis Chart
Orbit Inclination Analysis Chart
Orbit Comprehensive Analysis Chart
View Comprehensive Chart
Miss Distance Evolution Trend with All Objects
Collision Probability Evolution Trend with All Objects